This is the latest recevied weather packets stored in our database for station/object VR2R-13. If no packets are shown the sender has not sent any weather packets the latest 1 day(s).
| Time | Temp. | Humidity | Pressure | Rain* | Wind** | Luminosity | Snow |
|---|---|---|---|---|---|---|---|
| 1778052171 | 17.78° C | 98% | 913.5 hPa | 0 mm | 1.34 m/s, 87° | - | - |
| 1778051873 | 17.78° C | 98% | 913.6 hPa | 0 mm | 1.79 m/s, 99° | - | - |
| 1778051871 | 17.78° C | 98% | 913.6 hPa | 0 mm | 1.79 m/s, 89° | - | - |
| 1778050971 | 17.78° C | 98% | 913.6 hPa | 0 mm | 0.45 m/s, 107° | - | - |
| 1778050671 | 17.78° C | 98% | 913.6 hPa | 0 mm | 0.45 m/s, 80° | - | - |
| 1778050432 | 17.78° C | 98% | 913.7 hPa | 0 mm | 0.45 m/s, 173° | - | - |
| 1778050371 | 17.78° C | 98% | 913.7 hPa | 0 mm | 0 m/s | - | - |
| 1778050072 | 17.78° C | 98% | 913.7 hPa | 0 mm | 1.34 m/s, 165° | - | - |
| 1778050071 | 17.78° C | 98% | 913.6 hPa | 0 mm | 1.34 m/s, 169° | - | - |
| 1778049771 | 17.78° C | 98% | 913.7 hPa | 0 mm | 1.79 m/s, 91° | - | - |
| 1778049712 | 17.78° C | 98% | 913.7 hPa | 0 mm | 1.79 m/s, 116° | - | - |
| 1778049471 | 17.78° C | 98% | 913.8 hPa | 0 mm | 1.79 m/s, 102° | - | - |
| 1778049352 | 17.78° C | 98% | 913.8 hPa | 0 mm | 0.89 m/s, 76° | - | - |
| 1778049171 | 17.78° C | 98% | 913.8 hPa | 0 mm | 0.89 m/s, 116° | - | - |
| 1778048992 | 17.78° C | 98% | 913.9 hPa | 0 mm | 0.89 m/s, 112° | - | - |
| 1778048870 | 17.78° C | 98% | 913.9 hPa | 0 mm | 0.89 m/s, 144° | - | - |
| 1778048632 | 17.78° C | 98% | 913.9 hPa | 0 mm | 0 m/s | - | - |
| 1778048570 | 17.78° C | 98% | 913.9 hPa | 0 mm | 0.45 m/s, 56° | - | - |
| 1778048272 | 17.78° C | 98% | 914 hPa | 0 mm | 0.89 m/s, 83° | - | - |
| 1778048270 | 17.78° C | 98% | 914 hPa | 0 mm | 0.89 m/s, 94° | - | - |
| 1778047970 | 17.78° C | 98% | 914 hPa | 0 mm | 0.45 m/s, 112° | - | - |
| 1778047912 | 17.78° C | 98% | 914.1 hPa | 0 mm | 1.34 m/s, 111° | - | - |
| 1778047670 | 17.78° C | 98% | 914.1 hPa | 0 mm | 0.89 m/s, 62° | - | - |
| 1778047552 | 17.78° C | 98% | 914 hPa | 0 mm | 0.45 m/s, 98° | - | - |
| 1778047370 | 17.78° C | 98% | 914.1 hPa | 0 mm | 1.34 m/s, 94° | - | - |
* Rain latest hour (hover to see other rain measurements)
** Current wind speed in m/s (hover to see current wind gust speed)